Waarnemingen

Advertentie
Mijn weer
Lichtenhain-Mittelndorf, Duitsland (10591): temperatuur & dauwpunt: 19.02.2018 02:00:00 - 25.02.2018 02:00:00 (CET)Lichtenhain-Mittelndorf, Duitsland (10591): temperatuur 5cm & temperatuur -5cm: 19.02.2018 02:00:00 - 25.02.2018 02:00:00 (CET)Lichtenhain-Mittelndorf, Duitsland (10591): temperatuur -20cm & temperatuur -100cm: 19.02.2018 02:00:00 - 25.02.2018 02:00:00 (CET)Lichtenhain-Mittelndorf, Duitsland (10591): windsnelheid & windstoten: 19.02.2018 02:00:00 - 25.02.2018 02:00:00 (CET)Lichtenhain-Mittelndorf, Duitsland (10591): windrichting: 19.02.2018 02:00:00 - 25.02.2018 02:00:00 (CET)Lichtenhain-Mittelndorf, Duitsland (10591): luchtdruk: 19.02.2018 02:00:00 - 25.02.2018 02:00:00 (CET)Lichtenhain-Mittelndorf, Duitsland (10591): zicht: 19.02.2018 02:00:00 - 25.02.2018 02:00:00 (CET)Lichtenhain-Mittelndorf, Duitsland (10591): Zonneschijnduur: 19.02.2018 02:00:00 - 25.02.2018 02:00:00 (CET)Lichtenhain-Mittelndorf, Duitsland (10591): neerslag: 19.02.2018 02:00:00 - 25.02.2018 02:00:00 (CET)
Datum & Tijd tt [°C] td [°C] tt 5cm [°C] tt -5cm [°C] tt -20cm [°C] tt -100cm [°C] ff [km/u] ff [kn] fx [km/u] fx [kn] dd ppp [hPa] vv [km] sd [min] rr [mm]
25.02.2018 02:00:00 -9,9 -14,2 -10,9 -7,1 -1,8 3,4 13 7 24 13 NO 1032,1 24 0 0,0
25.02.2018 01:00:00 -9,0 -13,8 -10,1 -6,6 -1,6 3,4 17 9 27 14 NO 1031,9 23 0 0,0
25.02.2018 00:00:00 -8,1 -13,5 -9,1 -6,1 -1,4 3,4 19 10 32 17 NO 1031,7 21 0 0,0
24.02.2018 23:00:00 -7,4 -13,1 -8,3 -5,6 -1,3 3,4 18 10 29 15 ONO 1031,5 17 0 0,0
24.02.2018 22:00:00 -7,8 -13,0 -9,0 -5,3 -1,0 3,4 9 5 22 12 NNO 1031,4 11 0 0,0
24.02.2018 21:00:00 -7,5 -12,9 -8,5 -4,9 -0,8 3,4 12 7 27 15 ONO 1031,4 13 0 0,0
24.02.2018 20:00:00 -7,0 -13,0 -8,0 -4,3 -0,6 3,4 19 10 29 16 ONO 1031,1 14 0 0,0
24.02.2018 19:00:00 -6,8 -12,8 -7,8 -3,6 -0,5 3,4 16 9 44 24 ONO 1030,8 14 0 0,0
24.02.2018 18:00:00 -5,5 -12,7 -6,3 -2,3 -0,5 3,4 22 12 41 22 NO 1029,6 20 11 0,0
24.02.2018 17:00:00 -4,5 -13,5 -4,6 -1,2 -0,5 3,4 22 12 44 24 NO 1028,8 31 7 0,0
24.02.2018 16:00:00 -3,7 -13,5 -2,8 -0,7 -0,6 3,4 22 12 45 24 NO 1028,5 29 17 0,0
24.02.2018 15:00:00 -3,6 -11,9 -3,0 -0,5 -0,6 3,4 23 12 45 25 NO 1028,3 34 2 0,0
24.02.2018 14:00:00 -3,4 -12,4 -2,7 -0,5 -0,7 3,4 26 14 44 24 NNO 1027,9 34 28 0,0
24.02.2018 13:00:00 -3,6 -11,9 -3,2 -0,7 -0,8 3,4 31 17 47 25 NO 1027,9 42 15 0,0
24.02.2018 12:00:00 -2,9 -10,6 -1,4 -0,9 -0,9 3,4 17 9 41 22 NO 1027,9 21 44 0,0
24.02.2018 11:00:00 -4,3 -9,2 -2,8 -1,5 -1,1 3,4 20 11 40 22 NNO 1028,3 23 21 0,0
24.02.2018 10:00:00 -4,3 -7,3 -3,4 -2,6 -1,2 3,4 11 6 21 11 NNO 1028,3 9 19 0,0
24.02.2018 09:00:00 -7,4 -9,5 -6,2 -4,2 -1,2 3,4 2 1 7 4 W 1028,8 3,0 0 0,0
24.02.2018 08:00:00 -8,8 -11,1 -8,0 -5,2 -1,1 3,4 4 2 11 6 WZW 1028,7 3,3 0 0,0
24.02.2018 07:00:00 -9,7 -11,7 -10,0 -6,2 -0,9 3,4 5 3 8 4 W 1028,3 4,1 0 0,0
24.02.2018 06:00:00 -8,7 -11,5 -10,4 -6,1 -0,7 3,4 3 2 19 10 NNO 1027,8 4,5 0 0,0
24.02.2018 05:00:00 -8,5 -11,8 -9,3 -5,9 -0,5 3,4 13 7 21 11 NNO 1027,5 4,5 0 0,0
24.02.2018 04:00:00 -9,0 -11,7 -10,6 -5,7 -0,3 3,4 4 2 13 7 N 1027,3 4,8 0 0,0
24.02.2018 03:00:00 -8,6 -11,5 -10,0 -5,4 -0,2 3,4 5 3 10 6 N 1027,3 4,3 0 0,0
24.02.2018 02:00:00 -8,5 -11,3 -9,4 -5,1 -0,2 3,4 6 4 11 6 NNO 1027,5 4,2 0 0,0
24.02.2018 01:00:00 -8,4 -11,5 -9,7 -4,7 -0,2 3,5 5 3 7 4 N 1027,5 4,4 0 0,0
24.02.2018 00:00:00 -7,8 -11,4 -9,8 -4,2 -0,1 3,5 3 2 15 8 NNW 1027,3 5 0 0,0
23.02.2018 23:00:00 -7,5 -11,4 -8,4 -3,7 -0,1 3,5 13 7 26 14 NO 1027,1 5 0 0,0
23.02.2018 22:00:00 -7,8 -11,3 -8,7 -2,9 -0,1 3,5 11 6 18 10 ONO 1027,0 5 0 0,0
23.02.2018 21:00:00 -7,0 -11,3 -7,9 -2,0 -0,1 3,5 14 8 29 16 ONO 1026,5 6 0 0,0
23.02.2018 20:00:00 -6,5 -10,9 -7,2 -0,8 -0,1 3,5 22 12 29 16 NO 1026,2 6 0 0,0
23.02.2018 19:00:00 -6,0 -10,4 -6,7 -0,2 -0,1 3,5 13 7 25 13 NO 1025,9 6 0 0,0
23.02.2018 18:00:00 -5,0 -10,1 -5,7 -0,1 -0,1 3,5 19 10 29 16 ONO 1025,3 6 22 0,0
23.02.2018 17:00:00 -3,8 -10,7 -4,0 -0,1 -0,1 3,5 18 10 32 18 NO 1024,8 9 60 0,0
23.02.2018 16:00:00 -2,8 -10,5 -2,3 -0,1 -0,1 3,5 19 11 37 20 ONO 1024,5 10 60 0,0
23.02.2018 15:00:00 -2,8 -11,1 -1,4 0,1 -0,1 3,5 20 11 34 18 NO 1024,5 10 60 0,0
23.02.2018 14:00:00 -2,9 -11,0 -1,2 -0,2 -0,1 3,5 24 13 34 19 ONO 1024,7 9 60 0,0
23.02.2018 13:00:00 -2,5 -10,5 -0,7 -0,4 -0,1 3,5 18 10 36 20 NO 1024,7 10 60 0,0
23.02.2018 12:00:00 -3,5 -10,7 -1,5 -0,6 -0,1 3,5 20 11 32 18 NNO 1024,9 8 60 0,0
23.02.2018 11:00:00 -4,8 -10,5 -2,9 -0,9 -0,1 3,5 29 16 38 21 NO 1025,0 6 60 0,0
23.02.2018 10:00:00 -4,9 -9,7 -3,1 -2,0 -0,1 3,5 16 9 32 17 ONO 1024,7 7 59 0,0
23.02.2018 09:00:00 -6,2 -9,6 -6,0 -3,9 0,0 3,5 19 11 29 16 NO 1024,7 6 60 0,0
23.02.2018 08:00:00 -7,6 -10,1 -8,1 -5,1 0,0 3,5 14 7 19 11 NO 1024,7 4,8 24 0,0
23.02.2018 07:00:00 -7,9 -10,5 -9,0 -5,0 0,0 3,5 11 6 23 12 NO 1024,5 6 0 0,0
23.02.2018 06:00:00 -7,8 -10,7 -9,2 -4,7 0,0 3,5 10 5 18 10 NO 1024,4 7 0 0,0
23.02.2018 05:00:00 -7,4 -10,4 -8,8 -4,5 0,0 3,5 9 5 23 12 NO 1023,9 7 0 0,0
23.02.2018 04:00:00 -6,9 -9,8 -7,8 -4,1 0,1 3,5 13 7 21 12 NO 1023,9 7 0 0,0
23.02.2018 03:00:00 -6,9 -9,6 -7,6 -3,8 0,1 3,5 15 8 21 11 NNO 1024,0 7 0 0,0
23.02.2018 02:00:00 -6,4 -9,5 -7,3 -3,5 0,1 3,5 13 7 18 10 NNO 1024,5 7 0 0,0
23.02.2018 01:00:00 -5,9 -9,5 -6,9 -3,0 0,1 3,5 14 7 20 11 NO 1024,3 8 0 0,0
23.02.2018 00:00:00 -5,3 -9,4 -6,1 -2,5 0,1 3,5 13 7 22 12 NO 1024,3 9 0 0,0
22.02.2018 23:00:00 -4,9 -9,2 -5,8 -1,8 0,1 3,5 14 8 27 14 NO 1024,5 10 0 0,0
22.02.2018 22:00:00 -4,3 -9,3 -5,0 -1,1 0,1 3,5 16 9 29 16 NO 1024,5 11 0 0,0
22.02.2018 21:00:00 -4,0 -9,4 -4,9 -0,4 0,1 3,5 16 9 26 14 NO 1024,5 12 0 0,0
22.02.2018 20:00:00 -3,6 -9,4 -4,8 -0,1 0,1 3,5 19 11 33 18 ONO 1024,2 14 0 0,0
22.02.2018 19:00:00 -2,6 -10,9 -3,6 -0,1 0,1 3,5 20 11 37 20 NO 1023,8 20 0 0,0
22.02.2018 18:00:00 -1,7 -10,8 -2,4 -0,1 0,1 3,5 24 13 36 19 ONO 1023,5 23 0 0,0
22.02.2018 17:00:00 -1,0 -10,6 -1,3 -0,1 0,1 3,5 27 14 39 21 NO 1023,2 24 33 0,0
22.02.2018 16:00:00 -1,2 -9,7 -1,8 -0,1 0,1 3,5 26 14 47 26 ONO 1023,4 27 11 0,0
22.02.2018 15:00:00 -0,3 -9,8 0,2 -0,1 0,1 3,5 31 17 48 26 NO 1023,3 21 30 0,0
22.02.2018 14:00:00 0,5 -8,8 1,9 0,1 0,1 3,5 29 16 45 24 ONO 1023,6 17 57 0,0
22.02.2018 13:00:00 -0,6 -8,5 0,9 -0,2 0,1 3,5 26 14 39 21 NO 1024,2 14 58 0,0
22.02.2018 12:00:00 -1,3 -8,5 0,5 -0,4 0,1 3,5 30 16 44 24 ONO 1024,5 10 60 0,0
22.02.2018 11:00:00 -2,0 -8,2 -0,3 -0,5 0,1 3,5 26 14 45 25 NO 1024,5 13 59 0,0
22.02.2018 10:00:00 -2,8 -8,0 -1,5 -1,0 0,1 3,5 26 14 43 23 ONO 1024,8 11 60 0,0
22.02.2018 09:00:00 -4,2 -8,0 -3,7 -2,4 0,2 3,5 20 11 28 15 NO 1025,1 8 60 0,0
22.02.2018 08:00:00 -5,5 -8,5 -6,3 -3,5 0,2 3,5 16 9 26 14 NO 1025,1 6 31 0,0
22.02.2018 07:00:00 -6,4 -8,7 -7,3 -3,4 0,2 3,5 11 6 16 9 NNO 1025,1 5 0 0,0
22.02.2018 06:00:00 -6,3 -8,4 -7,3 -3,1 0,2 3,5 8 5 18 10 NNO 1025,1 5 0 0,0
22.02.2018 05:00:00 -5,8 -8,0 -7,1 -2,8 0,2 3,5 9 5 20 11 NO 1025,1 4,8 0 0,0
22.02.2018 04:00:00 -5,0 -7,7 -6,0 -2,4 0,2 3,5 15 8 24 13 NO 1025,0 5 0 0,0
22.02.2018 03:00:00 -4,7 -7,8 -5,7 -2,0 0,2 3,5 17 9 28 15 NO 1025,1 7 0 0,0
22.02.2018 02:00:00 -4,1 -7,4 -5,0 -1,5 0,2 3,5 19 10 27 14 NO 1025,2 7 0 0,0
22.02.2018 01:00:00 -3,9 -6,7 -5,0 -1,0 0,2 3,5 16 8 23 12 NO 1025,6 6 0 0,0
22.02.2018 00:00:00 -3,5 -6,5 -4,4 -0,5 0,2 3,5 16 8 22 12 NO 1025,6 7 0 0,0
21.02.2018 23:00:00 -3,2 -6,2 -4,8 -0,3 0,2 3,5 8 4 24 13 ONO 1025,6 7 0 0,0
21.02.2018 22:00:00 -2,5 -5,9 -3,5 -0,1 0,2 3,5 18 10 29 15 ONO 1025,5 7 0 0,0
21.02.2018 21:00:00 -2,2 -6,3 -3,2 -0,1 0,2 3,5 20 11 32 17 ONO 1025,2 8 0 0,0
21.02.2018 20:00:00 -1,9 -7,0 -3,1 -0,1 0,2 3,5 15 8 26 14 NO 1025,0 10 0 0,0
21.02.2018 19:00:00 -1,2 -7,3 -2,3 -0,1 0,2 3,5 12 6 21 12 NO 1024,5 13 0 0,0
21.02.2018 18:00:00 -1,0 -7,8 -2,2 -0,1 0,2 3,5 11 6 37 20 NO 1023,9 14 16 0,0
21.02.2018 17:00:00 0,1 -8,0 -0,5 -0,1 0,2 3,5 25 13 39 21 NO 1023,6 16 50 0,0
21.02.2018 16:00:00 0,6 -7,2 0,5 0,5 0,2 3,5 23 12 37 20 NO 1023,3 12 47 0,0
21.02.2018 15:00:00 0,3 -7,2 1,4 0,7 0,2 3,5 26 14 42 23 NO 1023,4 10 60 0,0
21.02.2018 14:00:00 0,3 -7,6 1,7 0,3 0,2 3,5 27 15 41 22 ONO 1023,4 10 60 0,0
21.02.2018 13:00:00 0,2 -7,8 1,8 -0,2 0,2 3,5 30 16 44 24 NO 1023,8 12 60 0,0
21.02.2018 12:00:00 -0,2 -6,8 1,2 -0,3 0,2 3,5 21 11 39 21 ONO 1024,2 9 60 0,0
21.02.2018 11:00:00 -1,1 -6,0 0,7 -0,4 0,2 3,5 12 7 24 13 NO 1024,3 6 60 0,0
21.02.2018 10:00:00 -2,8 -6,4 -1,8 -0,6 0,2 3,5 16 8 26 14 NNO 1024,4 4,2 60 0,0
21.02.2018 09:00:00 -4,7 -6,7 -4,2 -1,4 0,3 3,5 15 8 20 11 N 1024,2 2,8 53 0,0
21.02.2018 08:00:00 -5,6 -7,2 -6,0 -1,9 0,3 3,5 4 2 9 5 N 1023,7 2,7 6 0,0
21.02.2018 07:00:00 -5,7 -7,2 -6,3 -2,1 0,3 3,5 3 1 7 4 W 1024,1 2,8 0 0,0
21.02.2018 06:00:00 -6,0 -7,3 -7,3 -2,1 0,3 3,5 6 3 8 5 W 1023,8 2,6 0 0,0
21.02.2018 05:00:00 -5,7 -7,3 -7,0 -1,8 0,3 3,5 4 2 11 6 NW 1023,5 2,9 0 0,0
21.02.2018 04:00:00 -5,8 -7,3 -6,7 -1,5 0,3 3,5 9 5 14 8 NW 1023,2 2,9 0 0,0
21.02.2018 03:00:00 -5,4 -6,7 -6,9 -1,0 0,3 3,5 7 4 11 6 W 1022,5 2,5 0 0,0
21.02.2018 02:00:00 -4,5 -6,4 -6,0 -0,6 0,3 3,5 7 4 12 7 NW 1022,0 3,4 0 0,0
21.02.2018 01:00:00 -3,6 -6,5 -5,0 -0,3 0,3 3,5 4 2 13 7 WNW 1021,5 4,2 0 0,0
21.02.2018 00:00:00 -3,6 -6,4 -5,1 -0,1 0,3 3,5 8 4 14 8 NW 1021,3 4,1 0 0,0
20.02.2018 23:00:00 -2,6 -5,9 -3,8 -0,1 0,3 3,5 9 5 19 10 N 1021,1 4,3 0 0,0
20.02.2018 22:00:00 -2,5 -5,6 -3,9 -0,1 0,4 3,5 7 4 30 16 NO 1020,8 4,3 0 0,0
20.02.2018 21:00:00 -1,8 -5,6 -2,6 -0,1 0,4 3,5 20 11 29 16 NO 1020,4 5 0 0,0
20.02.2018 20:00:00 -1,2 -5,6 -2,0 0,0 0,4 3,6 15 8 24 13 NO 1020,0 7 0 0,0
20.02.2018 19:00:00 -0,3 -5,1 -1,1 0,0 0,4 3,6 14 7 20 11 NNO 1019,6 7 0 0,0
20.02.2018 18:00:00 0,3 -5,0 -0,7 0,0 0,4 3,6 8 5 29 16 NO 1019,2 6 0 0,0
20.02.2018 17:00:00 1,3 -5,0 0,6 0,4 0,4 3,6 18 10 29 16 ONO 1018,5 7 24 0,0
20.02.2018 16:00:00 2,0 -4,3 2,0 0,9 0,3 3,6 18 10 24 13 NO 1017,8 5 7 0,0
20.02.2018 15:00:00 2,7 -4,8 2,8 1,0 0,3 3,6 16 9 24 13 NO 1017,7 9 30 0,0
20.02.2018 14:00:00 3,3 -5,7 3,9 0,8 0,3 3,6 8 5 20 11 NNO 1017,9 17 48 0,0
20.02.2018 13:00:00 3,0 -6,2 3,8 -0,1 0,3 3,6 5 3 17 9 ONO 1018,0 19 58 0,0
20.02.2018 12:00:00 2,1 -5,9 3,0 -0,1 0,3 3,6 7 4 15 8 ZZO 1018,6 14 51 0,0
20.02.2018 11:00:00 1,8 -5,4 2,8 -0,2 0,3 3,6 8 5 17 9 OZO 1018,6 11 60 0,0
20.02.2018 10:00:00 0,2 -4,8 1,4 -0,3 0,3 3,6 4 2 11 6 ZO 1019,1 9 60 0,0
20.02.2018 09:00:00 -1,8 -5,4 -1,9 -0,6 0,3 3,6 7 4 11 6 O 1019,2 9 60 0,0
20.02.2018 08:00:00 -3,4 -5,7 -4,2 -1,2 0,3 3,6 6 3 9 5 O 1019,5 6 0 0,0
20.02.2018 07:00:00 -3,8 -5,9 -5,0 -1,1 0,3 3,6 5 3 9 5 OZO 1019,3 6 0 0,0
20.02.2018 06:00:00 -3,5 -5,7 -4,8 -0,9 0,3 3,6 7 4 10 6 ZO 1019,2 6 0 0,0
20.02.2018 05:00:00 -3,1 -5,6 -4,3 -0,6 0,3 3,6 7 4 11 6 ZO 1019,1 6 0 0,0
20.02.2018 04:00:00 -2,9 -5,5 -4,1 -0,5 0,3 3,6 7 4 14 8 O 1019,1 6 0 0,0
20.02.2018 03:00:00 -2,3 -5,1 -3,3 -0,3 0,3 3,6 9 5 24 13 O 1019,0 6 0 0,0
20.02.2018 02:00:00 -1,8 -5,3 -2,5 -0,2 0,3 3,6 19 10 28 15 ZO 1019,0 6 0 0,0
20.02.2018 01:00:00 -1,6 -5,3 -2,5 -0,1 0,3 3,6 10 5 25 13 ZO 1019,3 7 0 0,0
20.02.2018 00:00:00 -1,2 -5,3 -2,0 -0,1 0,3 3,6 14 7 27 14 ZO 1019,4 7 0 0,0
19.02.2018 23:00:00 -1,3 -5,2 -2,0 -0,1 0,3 3,6 13 7 20 11 OZO 1019,5 7 0 0,0
19.02.2018 22:00:00 -1,3 -5,3 -2,7 -0,1 0,4 3,6 7 4 14 7 O 1019,8 8 0 0,0
19.02.2018 21:00:00 -1,0 -5,3 -2,3 -0,1 0,4 3,6 7 4 12 6 O 1020,2 8 0 0,0
19.02.2018 20:00:00 -0,9 -6,0 -2,4 0,0 0,4 3,6 5 3 12 7 OZO 1020,4 10 0 0,0
19.02.2018 19:00:00 -0,7 -6,6 -2,1 0,0 0,4 3,6 8 4 13 7 ZZO 1020,3 15 0 0,0
19.02.2018 18:00:00 0,0 -6,6 -2,4 0,0 0,5 3,6 8 4 11 6 OZO 1020,3 18 0 0,0
19.02.2018 17:00:00 1,1 -6,4 0,0 0,4 0,4 3,6 6 3 20 11 OZO 1020,3 17 34 0,0
19.02.2018 16:00:00 2,2 -6,5 2,4 1,3 0,3 3,6 10 5 26 14 ZZO 1020,5 24 46 0,0
19.02.2018 15:00:00 2,0 -5,7 2,7 1,3 0,3 3,6 11 6 24 13 Z 1021,2 18 59 0,0
19.02.2018 14:00:00 2,1 -5,8 3,2 0,5 0,3 3,6 8 5 24 13 Z 1021,6 17 52 0,0
19.02.2018 13:00:00 1,2 -6,0 1,9 -0,1 0,3 3,6 18 10 30 16 Z 1022,3 19 58 0,0
19.02.2018 12:00:00 0,8 -5,7 2,4 -0,1 0,3 3,6 14 7 30 16 Z 1023,2 15 60 0,0
19.02.2018 11:00:00 -0,1 -6,1 0,6 -0,2 0,3 3,6 24 13 34 19 ZZO 1023,6 20 60 0,0
19.02.2018 10:00:00 -0,9 -5,5 -0,2 -0,3 0,3 3,6 12 7 18 10 ZZO 1024,2 11 52 0,0
19.02.2018 09:00:00 -1,9 -5,3 -2,1 -0,6 0,3 3,6 8 4 16 8 ZO 1024,6 11 31 0,0
19.02.2018 08:00:00 -2,7 -6,2 -3,2 -0,9 0,3 3,6 12 6 17 9 OZO 1025,1 14 17 0,0
19.02.2018 07:00:00 -2,5 -6,4 -3,5 -0,8 0,3 3,6 11 6 17 9 ZZO 1025,1 16 0 0,0
19.02.2018 06:00:00 -2,2 -6,4 -3,8 -0,5 0,3 3,6 7 4 12 6 ZZO 1025,3 19 0 0,0
19.02.2018 05:00:00 -2,4 -6,2 -3,8 -0,4 0,3 3,6 9 5 15 8 ZZO 1025,7 19 0 0,0
19.02.2018 04:00:00 -2,3 -6,3 -3,4 -0,2 0,3 3,6 11 6 22 12 ZO 1026,0 20 0 0,0
19.02.2018 03:00:00 -2,3 -6,0 -3,3 -0,1 0,3 3,6 12 6 20 11 ZO 1026,6 19 0 0,0
19.02.2018 02:00:00 -2,0 -5,8 -2,8 -0,1 0,3 3,6 13 7 17 9 ZO 1027,3 19 0 0,0

tt = temperatuur
td = dauwpunt
tt 5cm = temperatuur 5cm
tt -5cm = temperatuur -5cm
tt -20cm = temperatuur -20cm
tt -100cm = temperatuur -100cm
ff = windsnelheid
fx = windstoten
dd = windrichting
ppp = luchtdruk
vv = zicht
sd = Zonneschijnduur
rr = neerslag

Weerstations in de omgeving